Home   Weather   Stellenbosch   Past weeks

Flag for South Africa Past Weather in Stellenbosch, South Africa — Yesterday and Last 2 Weeks

Now
72 °F

Partly sunny.


Feels Like: 77 °F
Forecast: 56 / 90 °F
Wind: 15 mph from South

Location: Cape Town International Airport

Current Time: Jan 20, 2017 at 1:56:56 pm

Latest Report: Jan 20, 2017 at 1:00 pm


Visibility: N/A

Pressure: 30.04 "Hg

Humidity: 53%

Dew Point: 54 °F

Location of StellenboschLocation

Past Weather in Stellenbosch — Graph

°F

Stellenbosch Temperature Yesterday

Maximum temperature yesterday: 72 °F (at 12:00 pm)
Minimum temperature yesterday: 61 °F (at 11:00 pm)
Average temperature yesterday: 67 °F

High & Low Weather Summary for the Past Weeks

 TemperatureHumidityPressure
High88 °F (Jan 10, 3:00 pm)83% (Jan 8, 10:00 pm)30.07 "Hg (Jan 8, 10:00 pm)
Low59 °F (Jan 18, 5:00 am)23% (Jan 17, 11:00 am)29.68 "Hg (Jan 10, 7:00 pm)
Average70 °F61%29.92 "Hg
* Reported Jan 5 12:00 pm — Jan 20 12:00 pm, Stellenbosch, Weather by CustomWeather, © 2017

Note: Actual official high and low records may vary slightly from our data, if they occured in-between our weather recording intervals... More about our weather records

Advertising

Stellenbosch Weather History for the Previous 24 Hours

Scroll right to see more
 ConditionsComfort  
Time TempWeatherWind HumidityBarometerVisibility
12:00 pm
Fri, Jan 20
72 °FPartly sunny.15 mph53%30.04 "HgN/A
11:00 am72 °FScattered clouds.12 mph47%30.01 "HgN/A
10:00 am72 °FScattered clouds.10 mph50%30.01 "HgN/A
9:00 am70 °FScattered clouds.9 mph53%30.01 "HgN/A
8:00 am66 °FPassing clouds.7 mph64%30.01 "HgN/A
7:00 am64 °FPassing clouds.5 mph73%30.01 "HgN/A
6:00 am63 °FScattered clouds.8 mph77%30.01 "HgN/A
5:00 am59 °FPassing clouds.3 mph77%29.98 "HgN/A
4:00 am61 °FPassing clouds.1 mph72%29.98 "HgN/A
3:00 am61 °FPassing clouds.2 mph72%29.98 "HgN/A
2:00 am59 °FPassing clouds.3 mph77%30.01 "HgN/A
1:00 am59 °FPassing clouds.5 mph77%30.01 "HgN/A
12:00 am61 °FPassing clouds.8 mph72%30.01 "HgN/A
11:00 pm
Thu, Jan 19
61 °FPassing clouds.9 mph72%30.01 "HgN/A
10:00 pm64 °FPassing clouds.14 mph64%30.04 "HgN/A
9:00 pm64 °FClear.16 mph64%30.01 "Hg10 mi
8:00 pm64 °FPassing clouds.20 mph60%29.98 "HgN/A
7:00 pm66 °FPassing clouds.22 mph56%29.98 "HgN/A
6:30 pm68 °FPassing clouds.23 mph53%29.98 "HgN/A
6:00 pm68 °FPassing clouds.24 mph56%29.98 "HgN/A
5:00 pm70 °FPassing clouds.21 mph53%29.98 "HgN/A
4:00 pm72 °FPassing clouds.23 mph50%29.98 "HgN/A
3:00 pm72 °FPassing clouds.23 mph50%29.98 "HgN/A
2:00 pm72 °FPassing clouds.22 mph50%30.01 "HgN/A
1:00 pm72 °FPassing clouds.21 mph50%30.01 "HgN/A
Weather by CustomWeather, © 2017

See weather overviewHow to use our weather pages